When you browse on this site, cookies collect data to enhance your experience and personalize the content and advertising you see.
Visit our Privacy Policy to learn more. By continuing to use the site, you agree to this use of cookies and data.
  • In Latvia
  • List of Countries
  • For 7 days
  • Water Temperature
  • Weather Map
  • Weather Widgets
  • user-avatar
    Login

    Hourly Weather Salgotarjan

    Today, 26 January, Sunday

    Time Temperature Precipitation Wind Pressure Humidity
    00:00 -3°C° 0 mm 0 mps 736 mmHg 79%
    01:00 -3°C° 0 mm 0 mps 736 mmHg 79%
    02:00 -3°C° 0 mm 0 mps 736 mmHg 79%
    03:00 -3°C° 0 mm 0 mps 735 mmHg 80%
    04:00 -3°C° 0 mm 0 mps 735 mmHg 80%
    05:00 -4°C° 0 mm 0 mps 735 mmHg 81%
    06:00 -4°C° 0 mm 0 mps 735 mmHg 81%
    07:00 -4°C° 0 mm 0 mps 735 mmHg 81%
    08:00 -3°C° 0 mm 0 mps 735 mmHg 78%
    09:00 -1°C° 0 mm 1 mps 736 mmHg 74%
    10:00 0°C° 0 mm 1 mps 736 mmHg 70%
    11:00 0°C° 0 mm 1 mps 736 mmHg 69%
    12:00 -1°C° 0 mm 0 mps 735 mmHg 67%
    13:00 0°C° 0 mm 0 mps 735 mmHg 66%
    14:00 0°C° 0 mm 0 mps 735 mmHg 68%
    15:00 0°C° 0 mm 0 mps 734 mmHg 70%
    16:00 -1°C° 0 mm 0 mps 734 mmHg 71%
    17:00 -1°C° 0 mm 0 mps 734 mmHg 72%
    18:00 -1°C° 0 mm 0 mps 734 mmHg 73%
    19:00 -1°C° 0 mm 0 mps 734 mmHg 74%
    20:00 0°C° 0 mm 0 mps 734 mmHg 76%
    21:00 0°C° 0 mm 0 mps 734 mmHg 77%
    22:00 0°C° 0 mm 0 mps 734 mmHg 78%
    23:00 0°C° 0.1 mm 0 mps 734 mmHg 80%

    Tomorrow, 27 January, Monday

    Time Temperature Precipitation Wind Pressure Humidity
    00:00 0°C° 0.1 mm 0 mps 733 mmHg 82%
    01:00 0°C° 0.1 mm 0 mps 733 mmHg 84%
    02:00 0°C° 0.1 mm 0 mps 733 mmHg 85%
    03:00 0°C° 0.1 mm 0 mps 733 mmHg 87%
    04:00 0°C° 0.1 mm 0 mps 732 mmHg 89%
    05:00 0°C° 0 mm 0 mps 732 mmHg 90%
    06:00 0°C° 0 mm 0 mps 732 mmHg 91%
    07:00 0°C° 0 mm 0 mps 732 mmHg 92%
    08:00 +1°C° 0 mm 0 mps 732 mmHg 90%
    09:00 +1°C° 0 mm 0 mps 732 mmHg 88%
    10:00 +2°C° 0 mm 0 mps 732 mmHg 87%
    11:00 +3°C° 0 mm 1 mps 732 mmHg 85%
    12:00 +4°C° 0 mm 1 mps 732 mmHg 82%
    13:00 +5°C° 0 mm 1 mps 732 mmHg 80%
    14:00 +4°C° 0 mm 1 mps 732 mmHg 84%
    15:00 +3°C° 0 mm 1 mps 731 mmHg 87%
    16:00 +2°C° 0 mm 1 mps 731 mmHg 90%
    17:00 +1°C° 0 mm 1 mps 731 mmHg 91%
    18:00 0°C° 0 mm 0 mps 731 mmHg 92%
    19:00 -1°C° 0 mm 0 mps 731 mmHg 93%
    20:00 -1°C° 0 mm 0 mps 730 mmHg 93%
    21:00 -1°C° 0 mm 0 mps 730 mmHg 93%
    22:00 -1°C° 0 mm 0 mps 730 mmHg 93%
    23:00 -1°C° 0 mm 0 mps 730 mmHg 93%

    Day after tomorrow, 28 January, Tuesday

    Time Temperature Precipitation Wind Pressure Humidity
    00:00 -1°C° 0 mm 0 mps 729 mmHg 93%
    01:00 -1°C° 0 mm 0 mps 729 mmHg 93%
    02:00 0°C° 0 mm 1 mps 728 mmHg 94%
    03:00 0°C° 0 mm 1 mps 728 mmHg 94%
    04:00 0°C° 0 mm 1 mps 727 mmHg 95%
    05:00 0°C° 0 mm 1 mps 727 mmHg 95%
    06:00 0°C° 0 mm 1 mps 726 mmHg 96%
    07:00 -2°C° 0 mm 2 mps 726 mmHg 97%
    08:00 -1°C° 0.4 mm 2 mps 725 mmHg 97%
    09:00 -1°C° 0.4 mm 3 mps 725 mmHg 97%
    10:00 0°C° 0.4 mm 3 mps 724 mmHg 97%
    11:00 0°C° 1.6 mm 3 mps 724 mmHg 97%
    12:00 0°C° 1.6 mm 3 mps 723 mmHg 97%
    13:00 +1°C° 1.6 mm 3 mps 722 mmHg 97%
    14:00 +2°C° 1.9 mm 2 mps 721 mmHg 97%
    15:00 +2°C° 1.9 mm 2 mps 721 mmHg 97%
    16:00 +3°C° 1.9 mm 2 mps 720 mmHg 97%
    17:00 +2°C° 1.5 mm 2 mps 720 mmHg 97%
    18:00 +3°C° 1.5 mm 1 mps 719 mmHg 97%
    19:00 +3°C° 1.5 mm 1 mps 719 mmHg 97%
    20:00 +3°C° 3.4 mm 1 mps 718 mmHg 98%
    21:00 +2°C° 3.4 mm 2 mps 718 mmHg 98%
    22:00 +1°C° 3.4 mm 2 mps 718 mmHg 98%
    23:00 0°C° 1.5 mm 3 mps 717 mmHg 96%

    29 January, Wednesday

    Time Temperature Precipitation Wind Pressure Humidity
    00:00 -1°C° 1.5 mm 4 mps 717 mmHg 93%
    01:00 -1°C° 1.5 mm 5 mps 717 mmHg 90%
    02:00 -2°C° 0.3 mm 6 mps 717 mmHg 84%
    03:00 -2°C° 0.3 mm 6 mps 718 mmHg 79%
    04:00 -2°C° 0.3 mm 7 mps 718 mmHg 73%
    05:00 -2°C° 0 mm 6 mps 719 mmHg 75%
    06:00 -2°C° 0 mm 5 mps 720 mmHg 76%
    07:00 -2°C° 0 mm 5 mps 721 mmHg 78%
    08:00 -2°C° 0 mm 5 mps 721 mmHg 77%
    09:00 -1°C° 0 mm 5 mps 722 mmHg 75%
    10:00 -1°C° 0 mm 6 mps 722 mmHg 74%
    11:00 0°C° 0 mm 5 mps 722 mmHg 74%
    12:00 +1°C° 0 mm 5 mps 722 mmHg 73%
    13:00 +1°C° 0 mm 5 mps 722 mmHg 72%
    14:00 +1°C° 0 mm 5 mps 722 mmHg 76%
    15:00 0°C° 0 mm 4 mps 722 mmHg 80%
    16:00 -1°C° 0 mm 4 mps 723 mmHg 84%
    17:00 -1°C° 0 mm 4 mps 723 mmHg 85%
    18:00 -2°C° 0 mm 4 mps 723 mmHg 86%
    19:00 -2°C° 0 mm 4 mps 724 mmHg 87%
    20:00 -2°C° 0 mm 5 mps 724 mmHg 85%
    21:00 -2°C° 0 mm 5 mps 724 mmHg 83%
    22:00 -4°C° 0 mm 5 mps 725 mmHg 81%
    23:00 -4°C° 0 mm 5 mps 725 mmHg 81%

    30 January, Thursday

    Time Temperature Precipitation Wind Pressure Humidity
    00:00 -4°C° 0 mm 6 mps 725 mmHg 81%
    01:00 -4°C° 0 mm 6 mps 725 mmHg 81%
    02:00 -4°C° 0 mm 6 mps 726 mmHg 82%
    03:00 -4°C° 0 mm 6 mps 726 mmHg 83%
    04:00 -4°C° 0 mm 6 mps 726 mmHg 84%
    05:00 -4°C° 0 mm 5 mps 727 mmHg 84%
    06:00 -4°C° 0 mm 5 mps 727 mmHg 83%
    07:00 -4°C° 0 mm 5 mps 728 mmHg 83%
    08:00 -2°C° 0 mm 5 mps 728 mmHg 79%
    09:00 -2°C° 0 mm 6 mps 729 mmHg 75%
    10:00 -2°C° 0 mm 6 mps 730 mmHg 71%
    11:00 -1°C° 0 mm 6 mps 730 mmHg 70%
    12:00 -1°C° 0 mm 6 mps 730 mmHg 69%
    13:00 -1°C° 0 mm 7 mps 730 mmHg 68%
    14:00 -1°C° 0 mm 6 mps 730 mmHg 71%
    15:00 0°C° 0 mm 5 mps 730 mmHg 74%
    16:00 -1°C° 0 mm 5 mps 730 mmHg 76%
    17:00 -1°C° 0 mm 5 mps 731 mmHg 78%
    18:00 -2°C° 0 mm 5 mps 731 mmHg 79%
    19:00 -2°C° 0 mm 5 mps 731 mmHg 81%
    20:00 -2°C° 0 mm 4 mps 731 mmHg 82%
    21:00 -3°C° 0 mm 4 mps 732 mmHg 83%
    22:00 -2°C° 0 mm 3 mps 732 mmHg 85%
    23:00 -2°C° 0 mm 3 mps 732 mmHg 86%

    31 January, Friday

    Time Temperature Precipitation Wind Pressure Humidity
    00:00 -3°C° 0 mm 2 mps 732 mmHg 87%
    01:00 -1°C° 0 mm 1 mps 732 mmHg 89%
    02:00 -1°C° 0 mm 1 mps 732 mmHg 89%
    03:00 -1°C° 0 mm 1 mps 732 mmHg 89%
    04:00 -1°C° 0 mm 1 mps 732 mmHg 89%
    05:00 0°C° 0 mm 1 mps 733 mmHg 88%
    06:00 0°C° 0 mm 1 mps 733 mmHg 86%
    07:00 0°C° 0 mm 1 mps 733 mmHg 85%
    08:00 +1°C° 0 mm 1 mps 733 mmHg 82%
    09:00 +2°C° 0 mm 1 mps 733 mmHg 78%
    10:00 +1°C° 0 mm 0 mps 733 mmHg 75%
    11:00 +3°C° 0 mm 1 mps 733 mmHg 73%
    12:00 +3°C° 0 mm 1 mps 733 mmHg 71%
    13:00 +4°C° 0 mm 1 mps 733 mmHg 70%
    14:00 +3°C° 0 mm 1 mps 733 mmHg 73%
    15:00 +3°C° 0 mm 1 mps 733 mmHg 77%
    16:00 +1°C° 0 mm 0 mps 732 mmHg 81%
    17:00 +1°C° 0 mm 0 mps 733 mmHg 82%
    18:00 0°C° 0 mm 0 mps 733 mmHg 82%
    19:00 0°C° 0 mm 0 mps 733 mmHg 83%
    20:00 0°C° 0 mm 0 mps 733 mmHg 83%
    21:00 0°C° 0 mm 0 mps 733 mmHg 83%
    22:00 -1°C° 0 mm 0 mps 733 mmHg 82%
    23:00 -1°C° 0 mm 0 mps 733 mmHg 83%
    Show more